This is the latest recevied weather packets stored in our database for station/object YO6KXQ-10. If no packets are shown the sender has not sent any weather packets the latest 10 day(s).
| Time | Temp. | Humidity | Pressure | Rain* | Wind** | Luminosity | Snow |
|---|---|---|---|---|---|---|---|
| 1777919796 | 20.56° C | 54% | 1019.6 hPa | - | - | - | - |
| 1777917756 | 20.56° C | 53% | 1019.2 hPa | - | - | - | - |
| 1777915713 | 20.56° C | 53% | 1019 hPa | - | - | - | - |
| 1777913672 | 20.56° C | 52% | 1018.8 hPa | - | - | - | - |
| 1777912652 | 21.11° C | 52% | 1018.7 hPa | - | - | - | - |
| 1777910612 | 20° C | 52% | 1018.6 hPa | - | - | - | - |
| 1777909592 | 20° C | 53% | 1018.4 hPa | - | - | - | - |
| 1777908571 | 20° C | 54% | 1018.4 hPa | - | - | - | - |
| 1777907551 | 20° C | 52% | 1018.5 hPa | - | - | - | - |
| 1777905506 | 19.44° C | 51% | 1018.9 hPa | - | - | - | - |
| 1777904486 | 19.44° C | 51% | 1018.8 hPa | - | - | - | - |
| 1777903466 | 19.44° C | 51% | 1019.1 hPa | - | - | - | - |
| 1777900405 | 18.89° C | 50% | 1019.2 hPa | - | - | - | - |
| 1777899385 | 18.33° C | 50% | 1019.6 hPa | - | - | - | - |
| 1777898365 | 18.33° C | 50% | 1019.6 hPa | - | - | - | - |
| 1777897344 | 18.33° C | 50% | 1019.9 hPa | - | - | - | - |
| 1777896324 | 18.33° C | 49% | 1020.1 hPa | - | - | - | - |
| 1777894284 | 18.33° C | 49% | 1020.6 hPa | - | - | - | - |
| 1777893264 | 18.33° C | 49% | 1020.6 hPa | - | - | - | - |
| 1777892244 | 18.33° C | 49% | 1020.7 hPa | - | - | - | - |
| 1777890203 | 18.33° C | 48% | 1021 hPa | - | - | - | - |
| 1777889183 | 18.33° C | 48% | 1021.3 hPa | - | - | - | - |
| 1777887143 | 18.33° C | 47% | 1021.5 hPa | - | - | - | - |
| 1777886123 | 18.33° C | 46% | 1021.6 hPa | - | - | - | - |
| 1777885103 | 18.33° C | 46% | 1021.6 hPa | - | - | - | - |
* Rain since midnight (hover to see other rain measurements)
** Current wind speed in m/s (hover to see current wind gust speed)